Terminal Aerodrome Forecast
Issued by NWS St Louis, MO

Home | Current Version | Previous Version | Graphics & Text | Print | Product List | Glossary On
Versions: 1 2 3 4 5 6 7 8 9 10 11 12 13 14 15 16 17 18 19 20 21 22 23 24 25 26 27 28
000
FTUS43 KLSX 051127
TAFSTL
TAF
KSTL 051127Z 0512/0618 13003KT 5SM HZ SCT250
      TEMPO 0512/0514 2SM HZ
     FM051400 16006KT P6SM SCT250
     FM061500 20008KT P6SM SCT035 SCT250=

USA.gov is the U.S. government's official web portal to all federal, state and local government web resources and services.